Wetbulb
31.76 29.33 25.53 29.25 31.08 30.35 27.60 26.33 25.78 25.66 31.10 30.62 28.32 30.47 31.26 35.38 31.12 31.32 32.23 34.08 35.33 36.35 40.09 39.11 38.04 38.40 39.07 39.30 39.63 39.46 38.15 37.24 37.08 36.14 35.32 36.26 36.29 36.29 35.84 36.24 35.95 36.53 38.41 39.15
28.63 25.81 30.87 31.15 31.71 30.91 27.66 26.99 26.34 27.02 29.42 29.53 25.76 26.81 28.92 31.07 32.57 32.80 35.74 35.59 35.30 35.14 31.97 35.65 37.20 35.83 37.87 38.72 39.32 38.78 38.29 37.23 37.76 37.98 37.65 36.70 36.92 36.62 36.81 35.65 35.07 36.24 37.86 38.49
27.05 27.28 30.92 30.93 28.62 28.38 28.27 27.65 27.14 25.93 26.50 26.36 22.67 26.60 25.03 28.73 29.72 32.64 33.30 35.11 33.85 32.51 32.07 32.15 34.45 35.42 35.89 37.26 37.71 37.96 38.27 37.70 38.08 37.42 35.44 32.18 32.17 31.32 33.03 32.68 33.15 34.55 37.21 38.17
28.00 30.39 28.07 27.19 27.16 29.41 25.25 29.59 27.90 26.89 25.52 22.14 22.78 20.16 22.04 27.25 29.40 29.11 30.99 29.40 30.28 29.78 29.58 29.62 30.94 34.56 34.29 36.12 36.36 37.35 38.13 37.15 37.15 36.24 34.12 31.68 31.78 30.71 30.02 32.25 32.84 33.26 36.28 37.74
24.78 26.65 25.64 26.76 27.08 29.94 27.57 28.36 27.98 27.71 25.73 22.85 18.96 17.83 20.76 22.90 26.60 30.20 29.16 29.47 27.96 28.48 28.45 28.40 29.50 33.73 34.65 35.09 34.02 34.79 35.46 35.18 35.47 34.99 34.35 32.56 31.54 30.60 29.20 29.34 29.67 31.33 33.82 36.84
26.40 28.38 28.45 28.27 26.79 30.09 29.28 26.60 25.73 23.82 22.08 14.20 20.47 20.65 24.54 23.72 28.07 26.35 28.36 29.16 28.99 27.45 27.86 30.16 32.08 33.25 32.15 32.06 31.86 31.21 32.14 32.97 33.02 33.05 33.02 32.41 31.96 28.64 28.19 27.76 28.31 28.69 30.39 33.61
23.70 24.71 26.20 27.67 25.65 28.03 26.54 23.80 17.54 15.16 14.68 15.02 17.63 19.58 27.68 26.98 28.06 27.86 28.82 28.12 26.30 26.82 29.32 31.12 31.67 31.56 30.26 29.83 29.48 29.94 30.45 30.49 31.12 31.62 31.96 31.92 30.74 29.73 29.50 29.08 29.27 28.78 29.69 31.36
20.07 17.30 23.92 26.87 26.31 25.36 24.61 25.02 19.79 13.31 11.82 16.11 19.67 16.80 22.35 25.99 26.28 27.99 28.44 27.26 25.80 26.79 29.10 30.75 30.95 30.91 30.14 29.36 28.38 29.53 28.99 29.54 29.68 30.69 30.91 30.67 29.72 30.30 29.94 29.81 29.85 29.74 30.37 31.83
19.97 21.42 23.32 24.57 25.28 25.88 23.58 21.07 28.17 21.21 15.69 16.81 19.72 20.84 25.50 25.75 24.69 23.91 26.41 25.76 25.59 25.97 27.83 28.38 28.67 29.72 29.85 29.22 28.57 28.72 28.60 29.16 29.34 29.95 29.97 28.91 29.12 28.93 29.27 28.97 28.96 29.32 29.56 30.36
24.30 17.63 21.26 22.89 24.43 24.20 23.75 26.26 20.70 21.61 12.04 11.40 17.73 15.45 21.31 22.12 24.13 24.69 24.94 25.54 26.31 25.45 27.53 27.95 27.74 27.46 28.65 28.83 28.83 28.25 28.34 28.67 28.49 28.88 29.32 29.89 29.36 29.33 28.87 29.02 28.15 28.59 29.18 30.30
24.83 23.32 17.57 21.28 19.17 22.04 20.06 20.55 22.03 22.90 21.56 15.51 9.09 16.55 22.79 25.50 27.06 26.05 25.17 26.51 28.09 27.76 27.09 26.76 26.23 25.62 25.63 27.69 27.70 27.53 27.37 27.68 27.52 28.33 28.39 28.49 28.39 28.94 29.06 29.29 28.75 29.02 28.88 29.54
26.77 23.65 17.31 16.26 18.75 20.01 19.00 21.83 25.23 18.31 14.02 15.42 15.47 17.89 22.96 23.87 25.43 26.32 25.36 27.39 27.60 26.79 26.44 25.64 25.38 24.81 24.42 25.02 26.98 26.94 26.69 26.99 27.86 28.15 28.19 28.96 28.85 29.06 29.10 29.17 29.13 28.81 28.14 28.89
26.84 20.98 14.11 17.24 17.24 18.30 14.89 20.05 22.32 21.87 21.60 15.58 15.96 19.01 24.41 24.24 24.71 25.50 26.22 27.46 26.93 26.23 24.90 24.36 23.88 23.57 23.61 23.72 24.40 26.27 26.69 26.63 27.51 27.63 27.77 27.94 28.33 28.82 29.09 28.91 28.72 28.64 27.79 27.85
30.66 23.24 17.38 13.65 17.42 18.21 15.08 17.10 21.35 20.85 16.75 17.92 18.24 19.31 22.01 24.13 25.46 26.35 27.74 28.08 26.46 25.17 24.11 22.85 22.22 22.31 22.78 23.69 23.44 24.06 26.47 26.76 26.87 27.28 27.61 27.73 28.24 29.14 29.31 29.05 28.35 27.92 27.85 26.99
26.72 20.06 13.93 16.76 19.73 19.20 19.91 17.37 18.24 19.24 20.78 17.52 21.86 23.16 24.48 25.10 25.83 27.27 28.00 25.16 25.94 24.22 23.18 22.07 21.50 21.36 21.36 21.64 22.00 23.22 24.39 26.45 26.61 26.68 26.48 26.79 27.66 28.43 28.32 28.01 27.75 27.33 26.96 27.00
24.65 17.81 16.47 12.64 20.71 21.31 19.73 20.95 18.87 19.97 21.20 22.42 22.84 21.08 25.56 26.74 27.70 27.52 27.34 26.85 25.94 23.99 22.73 22.44 21.91 21.81 21.98 21.76 21.41 22.67 22.63 24.76 26.17 26.15 26.00 26.45 26.47 27.04 26.98 26.94 26.77 26.65 26.25 26.10
20.20 19.05 15.98 9.44 17.86 19.36 14.79 18.16 18.00 18.08 19.30 23.70 19.02 24.66 27.48 26.06 27.51 28.38 29.24 27.63 25.16 22.85 21.79 20.95 19.59 19.82 20.68 19.61 20.80 19.19 20.55 23.20 24.91 25.49 26.00 25.98 26.39 26.52 26.29 26.52 26.09 25.80 25.21 25.41
17.05 18.34 18.74 14.71 14.28 8.78 15.26 18.78 20.54 21.33 21.94 21.93 22.62 24.18 26.89 27.03 28.90 26.41 23.46 24.29 22.71 21.82 20.03 19.04 17.39 16.92 17.98 17.84 17.92 19.59 23.09 24.82 25.03 25.15 25.51 25.77 25.82 25.30 25.59 25.46 25.15 24.61 24.64 24.11
23.43 16.61 12.66 12.93 10.60 14.61 19.25 18.13 17.32 17.46 15.70 20.53 19.36 22.23 25.08 25.38 23.70 21.82 21.52 20.84 19.53 18.81 18.32 17.02 16.31 16.27 15.69 15.64 16.85 19.80 22.04 23.93 24.15 23.92 24.56 24.48 24.94 23.91 23.53 23.10 22.17 22.64 22.64 21.62
22.11 22.14 12.56 8.99 11.00 1.10 11.52 18.02 21.09 20.40 12.12 21.43 22.14 21.46 20.87 23.11 19.00 20.00 19.24 19.31 17.83 16.83 16.22 14.68 14.83 15.08 14.17 14.05 16.26 18.38 17.28 17.85 16.84 19.25 21.77 21.49 22.69 23.08 20.60 20.66 21.02 20.67 21.09 21.15
3.51 15.08 11.98 10.28 9.96 14.73 17.91 20.99 22.53 13.86 13.28 22.48 23.56 23.26 22.69 18.48 18.00 18.56 19.29 16.89 16.34 15.67 14.85 13.94 13.42 12.29 11.70 13.21 15.36 14.79 14.56 14.07 15.03 15.78 18.40 19.39 20.00 20.08 20.17 19.33 20.21 21.43 22.47 24.31
7.60 8.51 7.86 13.32 12.18 10.15 19.69 18.68 12.07 17.76 22.25 23.06 23.98 24.29 23.53 23.70 21.16 19.24 17.91 16.66 14.84 12.93 12.99 12.45 11.49 10.75 9.81 10.58 13.19 12.27 12.31 13.88 12.68 14.11 15.65 17.06 19.43 20.45 19.80 20.19 21.59 22.68 22.44 20.95
3.24 9.56 7.61 12.91 11.92 20.39 21.46 20.60 23.33 23.09 22.48 22.99 24.04 24.13 23.73 23.55 23.59 22.57 17.18 15.13 12.77 11.52 11.62 10.84 9.38 8.93 7.91 8.58 10.61 10.13 12.06 12.11 11.12 12.15 13.05 16.01 18.31 19.09 19.29 19.84 20.05 19.93 19.91 19.01
4.42 8.95 7.66 7.91 13.95 19.30 21.31 23.57 23.63 23.42 23.11 24.37 26.08 25.04 24.75 22.55 23.30 22.42 20.88 19.20 14.69 12.07 10.50 9.76 9.02 8.08 7.98 8.80 10.11 10.08 11.42 10.71 9.09 10.26 11.73 13.59 15.75 16.78 17.84 18.97 18.99 18.50 17.44 15.79
10.51 9.19 1.71 6.26 13.70 17.26 21.07 22.18 22.55 23.92 24.43 23.97 23.13 22.68 22.03 21.78 21.61 21.38 20.13 18.48 14.68 11.89 9.82 8.91 7.98 7.35 7.18 8.39 8.74 10.01 11.00 9.94 9.35 10.02 11.32 12.30 13.14 13.55 13.55 14.36 14.88 14.75 14.91 15.96
12.76 9.69 8.72 9.69 12.76 12.70 13.64 10.89 13.01 15.51 14.34 15.20 14.90 16.16 18.33 18.87 18.12 18.35 18.04 15.14 12.44 9.95 8.38 7.19 6.19 5.40 5.73 6.82 7.54 9.08 10.45 10.45 8.51 9.88 10.84 11.45 12.15 13.14 14.08 14.81 16.70 22.02 21.29 20.91
MSLP
1011.08 1011.38 1010.71 1010.04 1010.56 1010.50 1010.74 1010.81 1010.75 1010.30 1010.14 1010.63 1010.51 1009.83 1009.66 1008.96 1008.99 1008.83 1008.28 1008.07 1007.62 1007.23 1006.46 1007.21 1007.90 1008.54 1009.14 1009.60 1010.09 1010.59 1011.60 1012.41 1013.34 1014.52 1015.49 1016.40 1016.77 1017.32 1017.74 1017.79 1017.92 1018.28 1019.07 1019.25
1011.64 1010.77 1009.02 1010.27 1010.68 1010.83 1010.64 1010.72 1010.34 1010.46 1010.24 1010.50 1010.24 1009.36 1009.22 1008.81 1007.98 1007.35 1006.91 1006.48 1006.17 1006.55 1006.73 1007.15 1007.48 1007.87 1008.24 1008.36 1008.81 1009.81 1010.61 1011.62 1012.45 1013.35 1014.35 1015.20 1016.00 1017.01 1017.64 1017.49 1017.93 1018.05 1018.62 1019.08
1010.89 1009.55 1009.67 1010.05 1010.49 1010.84 1010.22 1010.28 1009.98 1010.29 1010.29 1010.45 1010.49 1008.96 1008.23 1007.28 1006.96 1006.18 1005.72 1005.35 1005.72 1006.16 1006.51 1006.65 1007.17 1007.23 1007.57 1007.82 1008.18 1008.88 1009.80 1010.88 1011.80 1012.87 1013.93 1014.92 1015.92 1016.70 1017.22 1017.24 1017.46 1018.01 1018.66 1018.95
1011.06 1009.63 1009.84 1010.17 1009.85 1009.93 1009.92 1009.22 1010.12 1010.38 1010.75 1010.86 1010.68 1009.35 1007.65 1006.62 1006.02 1005.35 1004.82 1005.25 1005.44 1005.84 1006.18 1006.39 1006.70 1006.89 1006.99 1007.28 1008.02 1008.88 1009.70 1010.59 1011.56 1012.37 1013.29 1014.00 1014.56 1015.33 1015.53 1015.98 1016.70 1017.35 1017.95 1018.57
1009.40 1009.54 1009.64 1009.54 1009.10 1009.61 1009.39 1009.39 1009.73 1010.21 1010.71 1011.26 1011.10 1011.03 1006.99 1006.47 1005.77 1004.80 1004.38 1004.80 1005.28 1006.00 1006.37 1006.31 1006.33 1006.42 1006.85 1007.26 1007.81 1008.61 1009.53 1010.42 1011.23 1011.96 1012.69 1013.51 1014.22 1014.68 1015.20 1015.91 1016.59 1017.08 1017.76 1018.28
1010.26 1009.84 1009.24 1009.02 1009.27 1009.13 1009.60 1010.12 1010.48 1010.78 1011.24 1011.55 1009.80 1010.36 1005.86 1005.89 1004.88 1004.29 1004.45 1004.88 1005.61 1006.01 1006.15 1006.13 1005.99 1006.38 1006.96 1007.50 1008.01 1008.68 1009.49 1010.24 1010.87 1011.60 1012.22 1012.76 1013.54 1014.39 1015.17 1015.80 1016.42 1016.93 1017.39 1017.93
1010.55 1009.89 1009.54 1009.25 1009.56 1009.74 1009.92 1010.25 1011.15 1011.68 1011.78 1010.83 1010.23 1009.99 1006.02 1004.85 1004.34 1004.36 1004.70 1005.39 1005.95 1006.00 1006.09 1006.17 1006.50 1006.95 1007.56 1007.96 1008.39 1008.78 1009.42 1010.07 1010.66 1011.28 1011.81 1012.35 1013.11 1013.87 1014.43 1015.10 1015.72 1016.39 1016.98 1017.47
1010.50 1009.79 1009.41 1009.04 1009.26 1009.13 1009.44 1009.73 1010.27 1011.08 1011.60 1010.99 1010.47 1009.24 1005.54 1004.62 1004.45 1004.49 1005.02 1005.67 1006.15 1006.04 1005.91 1006.45 1007.04 1007.36 1007.87 1008.29 1008.84 1009.06 1009.50 1009.96 1010.50 1011.08 1011.57 1012.05 1012.66 1013.42 1014.07 1014.60 1015.19 1015.83 1016.28 1016.74
1010.34 1009.76 1009.42 1009.43 1009.24 1009.56 1009.73 1009.69 1009.32 1011.20 1011.86 1011.47 1009.83 1007.76 1005.89 1004.93 1005.01 1005.35 1005.66 1006.02 1006.40 1006.50 1006.64 1006.99 1007.29 1007.66 1007.95 1008.42 1008.93 1009.16 1009.47 1009.78 1010.27 1010.76 1011.37 1012.02 1012.56 1013.16 1013.66 1014.19 1014.81 1015.48 1016.02 1016.56
1010.09 1010.05 1010.25 1010.24 1010.07 1010.05 1009.85 1009.36 1010.22 1011.34 1011.56 1011.30 1009.20 1008.00 1005.87 1005.31 1005.54 1006.00 1006.27 1006.44 1006.53 1006.72 1006.90 1007.13 1007.67 1008.02 1008.26 1008.44 1008.73 1009.03 1009.32 1009.52 1009.98 1010.59 1011.06 1011.60 1012.15 1012.76 1013.40 1014.08 1014.65 1015.12 1015.69 1016.31
1011.17 1011.02 1011.30 1011.06 1010.49 1010.06 1010.40 1010.18 1010.61 1010.86 1010.83 1010.09 1009.01 1006.42 1004.75 1004.50 1004.41 1005.15 1006.10 1006.33 1006.62 1007.04 1007.53 1007.85 1008.36 1008.68 1008.80 1008.85 1008.92 1009.06 1009.24 1009.52 1009.89 1010.32 1010.84 1011.32 1011.88 1012.43 1013.03 1013.59 1014.23 1014.77 1015.43 1016.02
1011.53 1011.70 1011.51 1011.08 1010.89 1010.68 1010.42 1009.86 1009.89 1010.36 1010.03 1009.42 1008.58 1005.44 1004.79 1004.28 1004.43 1005.26 1006.13 1006.42 1006.87 1007.53 1008.08 1008.43 1008.78 1009.13 1009.30 1009.35 1009.21 1009.31 1009.28 1009.39 1009.68 1010.14 1010.64 1011.16 1011.64 1012.18 1012.79 1013.30 1013.86 1014.44 1015.06 1015.65
1011.70 1011.80 1011.87 1011.55 1011.72 1011.37 1010.87 1010.15 1009.84 1009.57 1009.00 1008.37 1008.08 1005.40 1004.64 1004.37 1005.00 1005.72 1006.22 1006.73 1007.33 1008.12 1008.76 1009.17 1009.49 1009.78 1009.88 1009.84 1009.61 1009.44 1009.32 1009.40 1009.59 1010.05 1010.53 1011.00 1011.45 1011.91 1012.40 1012.97 1013.53 1014.24 1014.83 1015.40
1012.00 1011.66 1011.68 1011.47 1011.40 1011.25 1011.18 1010.67 1009.91 1009.58 1009.00 1007.60 1006.40 1005.64 1005.28 1005.27 1005.36 1005.99 1006.36 1006.79 1007.68 1008.59 1009.32 1009.80 1010.24 1010.66 1010.80 1010.51 1010.20 1009.84 1009.42 1009.22 1009.46 1009.93 1010.26 1010.74 1011.20 1011.56 1012.05 1012.65 1013.33 1014.00 1014.60 1015.31
1012.42 1012.03 1012.07 1011.47 1011.16 1011.15 1010.84 1010.67 1010.23 1009.31 1008.26 1007.35 1005.89 1005.66 1005.32 1005.27 1005.67 1006.16 1006.76 1007.44 1008.34 1008.98 1009.78 1010.46 1010.89 1011.40 1011.54 1010.82 1010.48 1010.16 1009.76 1009.36 1009.41 1009.78 1010.12 1010.47 1011.06 1011.55 1012.03 1012.59 1013.19 1013.90 1014.58 1015.15
1013.40 1012.65 1012.37 1011.69 1010.82 1010.60 1010.46 1009.94 1009.75 1009.32 1008.60 1007.26 1006.96 1005.65 1005.69 1005.69 1006.23 1006.92 1007.30 1008.08 1008.90 1009.97 1010.39 1010.64 1010.91 1011.57 1011.68 1011.13 1011.20 1010.72 1010.24 1009.54 1009.43 1009.72 1010.12 1010.52 1011.10 1011.72 1012.16 1012.66 1013.24 1013.88 1014.63 1015.28
1014.47 1013.37 1012.73 1011.85 1011.12 1010.69 1009.95 1008.71 1008.65 1008.46 1007.96 1007.09 1007.00 1005.73 1005.97 1006.36 1006.82 1007.24 1007.99 1008.72 1009.52 1010.52 1010.83 1011.58 1011.53 1011.67 1011.98 1012.08 1011.74 1011.14 1010.29 1009.48 1009.54 1009.85 1010.26 1010.68 1011.13 1011.60 1012.17 1012.76 1013.37 1014.00 1014.68 1015.36
1013.99 1013.73 1013.52 1012.09 1011.66 1010.62 1008.34 1007.93 1008.02 1008.21 1009.12 1008.95 1007.73 1007.12 1006.89 1006.84 1007.31 1007.86 1008.37 1008.93 1010.25 1011.24 1011.70 1012.16 1012.64 1012.28 1012.65 1012.52 1012.13 1011.27 1010.07 1009.68 1009.85 1010.05 1010.46 1010.94 1011.37 1011.90 1012.46 1012.98 1013.60 1014.33 1014.92 1015.44
1014.01 1014.04 1013.47 1012.75 1011.74 1010.05 1009.08 1009.09 1009.17 1008.98 1010.85 1010.76 1009.81 1008.48 1007.90 1007.54 1008.33 1009.46 1010.25 1010.88 1011.64 1012.45 1012.63 1013.32 1013.53 1013.00 1013.30 1012.96 1012.35 1011.57 1010.85 1010.48 1010.46 1010.62 1010.90 1011.31 1011.66 1012.16 1012.72 1013.41 1013.99 1014.58 1015.34 1016.16
1014.14 1013.96 1013.91 1012.83 1012.10 1011.19 1010.68 1010.12 1009.76 1009.61 1011.42 1011.84 1011.23 1010.17 1009.20 1008.69 1009.86 1011.43 1012.00 1012.31 1013.00 1013.43 1013.80 1014.17 1014.18 1013.76 1013.88 1013.49 1012.93 1012.35 1012.20 1011.80 1011.76 1011.60 1011.51 1011.88 1012.21 1012.68 1013.23 1013.88 1014.61 1015.27 1015.72 1016.48
1015.31 1014.27 1013.52 1012.82 1012.88 1011.50 1011.85 1011.04 1010.22 1011.22 1014.11 1013.01 1012.42 1011.89 1011.26 1011.23 1012.60 1013.04 1013.16 1013.64 1014.14 1014.85 1014.79 1014.71 1014.66 1014.56 1014.54 1014.32 1014.06 1013.24 1013.39 1013.17 1012.91 1012.38 1012.40 1012.67 1012.98 1013.40 1013.91 1014.61 1015.20 1015.65 1016.31 1016.95
1016.48 1015.72 1014.28 1013.26 1012.80 1012.87 1012.30 1011.87 1012.90 1015.06 1014.50 1013.93 1013.31 1013.15 1012.78 1012.74 1013.09 1013.40 1013.89 1014.29 1014.52 1015.18 1015.61 1015.51 1015.19 1015.36 1015.43 1015.18 1014.84 1014.58 1014.34 1014.19 1013.57 1013.36 1013.49 1013.70 1013.93 1014.22 1014.71 1015.18 1015.88 1016.38 1016.94 1017.74
1017.21 1016.25 1016.03 1015.48 1014.51 1014.42 1014.04 1014.28 1014.96 1015.03 1014.96 1014.78 1014.32 1014.12 1013.78 1013.47 1013.46 1013.84 1014.33 1014.46 1014.89 1015.69 1016.22 1016.51 1016.15 1016.16 1016.16 1016.00 1015.51 1015.34 1015.33 1014.92 1014.48 1014.44 1014.64 1014.73 1014.87 1015.11 1015.44 1015.89 1016.53 1017.24 1017.89 1018.56
1017.21 1016.55 1016.56 1016.05 1015.68 1014.89 1014.69 1014.48 1015.20 1015.16 1015.18 1015.27 1015.03 1014.61 1014.36 1014.29 1014.19 1014.31 1014.32 1014.50 1015.23 1016.03 1016.65 1016.67 1016.79 1016.94 1017.08 1016.81 1016.18 1015.94 1015.90 1015.72 1015.45 1015.54 1015.67 1015.65 1015.72 1016.02 1016.32 1016.75 1017.32 1017.87 1018.63 1019.39
1016.85 1017.34 1017.25 1016.72 1015.77 1015.15 1014.98 1015.42 1015.57 1015.55 1015.58 1015.92 1015.73 1015.52 1015.29 1014.98 1014.74 1014.76 1014.83 1015.18 1015.76 1016.56 1017.22 1017.35 1017.51 1017.83 1017.90 1017.43 1016.91 1016.51 1016.34 1016.42 1016.53 1016.55 1016.59 1016.55 1016.74 1016.91 1017.27 1017.95 1018.36 1018.81 1019.56 1019.96
1016.84 1017.11 1018.16 1017.49 1017.14 1016.82 1017.29 1017.81 1017.60 1017.15 1017.38 1017.47 1017.26 1016.51 1015.95 1016.07 1015.86 1015.68 1015.56 1015.97 1016.55 1017.26 1017.72 1017.89 1018.24 1018.42 1018.43 1018.12 1017.66 1017.15 1016.89 1016.85 1017.24 1017.45 1017.30 1017.40 1017.55 1017.78 1018.09 1018.65 1019.27 1019.83 1020.27 1020.96
Wind_Speed
3 5 15 20 15 6 2 5 6 3 5 5 9 14 9 14 6 10 11 13 13 16 15 8 9 12 13 13 14 16 15 14 12 8 7 4 6 4 5 5 8 7 5 5
3 15 18 5 9 11 5 8 14 4 3 5 3 15 10 11 12 10 17 17 17 9 5 5 9 12 15 17 17 15 17 16 13 10 8 4 6 4 3 4 5 5 6 6
13 6 8 11 6 13 17 19 14 4 2 3 3 17 6 9 8 11 12 14 9 9 10 8 9 12 10 14 16 17 17 16 14 12 8 4 5 4 5 5 3 3 6 7
10 5 4 5 14 15 20 12 5 5 4 7 3 11 6 6 9 6 9 6 9 8 7 7 7 9 10 10 9 10 13 14 12 14 12 10 7 7 5 6 6 8 8 8
11 7 7 16 13 13 11 6 11 8 8 3 5 3 6 1 6 11 5 3 3 5 6 8 7 7 5 7 8 8 10 12 11 13 12 10 8 4 3 4 7 6 6 7
4 5 5 7 3 11 7 5 5 4 4 2 8 8 10 7 10 2 3 1 3 5 5 4 4 5 4 6 7 8 11 11 11 13 12 14 13 8 7 6 6 6 4 4
2 6 3 2 4 4 1 6 2 1 2 9 3 7 21 5 6 6 6 6 3 3 5 6 6 4 4 6 7 8 10 10 11 13 12 12 10 11 11 10 8 8 6 5
9 8 10 7 5 9 12 5 7 9 5 2 3 9 11 4 3 5 6 7 5 5 6 8 5 2 3 5 6 7 8 8 9 11 11 9 8 7 6 8 7 7 8 8
6 8 1 4 3 1 6 5 10 4 2 1 4 9 10 6 2 2 7 7 6 5 5 6 7 5 2 4 7 8 8 7 9 10 8 7 8 8 9 9 6 6 5 6
5 7 2 1 1 1 3 3 6 2 5 5 7 6 10 1 6 6 6 7 6 2 6 7 7 7 4 2 5 7 7 8 7 7 8 8 9 8 7 7 8 9 7 8
3 1 1 1 6 12 1 3 3 2 4 6 2 8 8 8 10 17 9 7 6 6 5 7 7 7 6 4 2 5 6 7 7 8 7 8 8 8 8 9 8 9 8 9
3 2 6 8 1 2 1 7 17 6 6 4 1 10 3 8 8 11 9 6 6 5 5 6 7 6 6 6 5 4 5 6 6 7 7 8 7 7 9 9 9 9 9 8
1 3 2 5 3 2 3 5 2 1 2 7 8 9 6 5 9 6 9 6 5 5 6 6 7 7 7 7 7 6 4 5 6 7 7 7 8 9 10 9 9 9 8 8
5 5 6 5 3 1 1 2 5 4 7 7 12 2 2 1 6 6 4 5 5 6 5 5 7 7 6 6 6 7 6 4 6 7 7 8 9 10 9 8 8 9 9 9
3 4 2 5 5 5 5 6 6 14 13 11 10 13 7 6 4 4 2 1 4 5 4 3 3 5 6 5 7 7 7 4 5 7 7 7 6 6 6 7 8 8 8 8
5 4 2 5 7 8 9 11 10 14 13 20 16 20 4 1 3 4 5 5 4 4 3 3 5 3 6 8 7 8 7 6 5 6 6 6 7 6 6 7 8 9 8 8
3 3 1 5 5 2 9 14 16 8 8 15 14 15 7 1 5 8 5 7 6 3 5 5 7 7 8 8 10 9 8 5 4 5 5 6 6 7 7 7 8 9 9 9
5 4 4 3 1 6 7 1 5 15 10 10 15 7 2 4 4 2 6 4 6 4 6 7 6 7 7 8 8 9 7 1 4 5 5 5 6 6 6 7 7 7 7 9
14 4 4 4 3 7 9 5 3 4 5 14 15 14 10 4 4 5 7 7 6 4 6 5 5 4 6 7 9 9 7 5 4 4 5 4 6 7 7 6 7 6 8 7
7 9 3 2 4 5 4 8 9 3 4 12 16 15 16 3 4 2 5 6 7 7 5 6 6 5 6 9 9 6 7 6 6 4 3 4 5 6 7 7 9 4 8 9
4 3 14 12 7 3 8 13 10 3 5 11 11 14 17 10 2 3 4 5 4 4 6 5 6 7 8 10 8 6 5 7 5 4 6 6 6 8 8 7 8 9 11 12
3 2 3 4 8 7 17 6 9 3 4 9 9 13 14 10 6 2 3 4 6 7 8 9 7 7 8 8 5 5 6 5 5 6 8 8 8 7 7 11 9 11 13 13
3 5 3 1 1 2 9 13 7 3 3 9 11 12 12 14 12 9 5 5 4 4 5 6 6 6 6 6 4 4 4 4 5 8 8 9 9 9 8 11 11 10 11 11
5 2 3 5 3 7 8 7 4 6 5 1 3 4 4 3 3 5 6 5 3 3 3 3 5 6 6 6 5 4 4 5 6 8 8 7 9 10 9 7 7 9 9 9
6 5 5 5 4 7 3 7 2 3 6 4 6 4 6 7 7 6 6 4 2 2 2 2 3 3 4 4 5 4 4 5 6 7 7 8 7 9 9 8 7 7 6 8
5 8 5 10 0 1 4 7 9 8 7 7 8 11 10 8 9 8 7 3 1 2 1 2 2 1 3 4 4 5 4 5 4 6 6 6 7 7 8 10 10 19 19 23
Wind_Direction
202 178 216 211 209 222 220 215 231 225 198 169 230 254 241 270 247 249 256 258 251 241 259 205 200 198 197 189 179 177 170 169 157 155 149 162 190 180 195 189 195 166 190 171
120 227 228 190 201 228 220 238 254 266 171 187 292 267 229 232 251 227 252 253 244 249 266 221 209 196 198 193 190 178 180 171 175 174 170 153 151 184 192 188 195 169 175 171
214 200 178 181 185 216 229 231 234 217 151 204 329 283 224 249 247 252 252 260 280 248 261 253 226 213 199 194 187 186 180 175 175 165 143 101 105 99 174 179 151 180 182 177
237 247 192 205 234 197 236 213 191 173 128 248 105 277 276 236 245 238 258 239 258 273 281 278 250 217 199 200 176 175 176 172 172 163 164 170 179 176 194 178 170 178 177 182
229 184 190 222 221 181 245 183 189 194 201 126 219 255 265 349 267 256 229 211 284 299 284 294 277 223 195 159 163 158 159 166 168 174 177 179 186 159 131 123 152 160 168 176
274 325 187 189 79 188 150 90 65 74 119 200 202 166 265 192 215 206 178 40 3 350 355 5 39 123 138 140 141 145 155 170 166 174 182 187 188 152 143 151 165 164 159 168
231 207 207 163 111 60 209 147 150 15 156 232 172 171 252 272 226 191 155 119 87 60 61 52 59 87 133 158 157 154 160 172 171 181 187 187 180 174 173 170 174 169 168 180
227 249 172 178 212 180 191 208 157 196 192 238 114 220 251 253 305 221 138 128 110 65 53 50 48 101 162 169 173 168 172 170 173 183 190 183 167 176 176 173 170 180 188 184
202 251 67 15 101 111 200 218 151 91 140 87 227 269 297 226 279 109 134 123 119 110 70 53 47 61 134 183 197 191 178 174 179 187 178 172 166 167 179 171 160 169 158 154
290 289 17 9 102 80 218 207 85 194 166 215 245 262 237 173 193 184 160 146 134 120 33 26 31 22 7 226 212 194 187 187 179 176 178 181 181 174 157 154 164 167 162 159
350 267 21 24 214 187 131 170 124 132 201 194 232 251 214 231 196 169 169 152 115 68 28 13 21 12 6 356 238 213 195 181 181 181 175 168 174 169 162 170 166 170 156 163
201 225 261 226 34 354 356 212 195 193 204 239 140 258 314 248 164 149 150 156 96 78 41 26 19 18 22 10 1 271 221 196 188 178 170 180 164 161 170 174 172 161 168 163
247 205 308 311 347 11 209 200 197 170 76 198 194 258 359 75 105 135 134 124 88 78 55 35 25 16 8 359 351 340 253 215 178 166 166 167 173 173 182 177 167 165 156 157
324 197 208 198 160 101 312 282 204 160 221 215 237 319 319 129 139 162 140 81 107 100 66 41 21 4 352 352 348 341 324 226 176 172 171 177 182 185 180 169 162 163 160 153
287 261 185 263 229 193 224 220 220 214 233 222 256 242 231 222 179 157 114 217 140 120 92 69 38 345 325 348 350 341 330 284 185 173 174 184 165 162 153 156 157 151 155 156
327 289 347 275 253 216 246 234 219 228 248 250 260 270 260 282 174 184 196 208 172 178 117 98 84 9 344 4 338 329 310 310 187 178 179 153 150 154 158 148 150 148 146 145
247 288 289 265 325 182 269 230 209 199 211 226 235 259 189 204 325 288 231 177 153 126 61 20 28 25 357 344 333 312 302 298 190 165 156 153 154 156 150 142 143 151 150 144
231 185 292 277 14 230 243 296 197 215 33 354 307 310 309 234 222 127 20 72 78 45 33 24 357 9 348 332 325 316 318 20 154 144 147 147 146 135 131 135 139 131 141 144
229 209 225 266 229 306 317 13 1 140 53 9 350 328 293 199 102 47 29 42 74 64 50 18 346 4 334 342 336 335 3 41 103 134 147 147 139 128 127 128 125 122 119 114
214 221 208 204 253 243 254 315 330 264 72 360 1 4 357 46 154 57 10 29 35 46 42 10 351 11 359 350 339 10 19 38 33 19 116 105 110 119 108 113 115 87 106 112
356 232 216 231 251 280 348 316 303 63 24 343 358 14 18 47 27 328 8 33 33 6 15 23 19 27 8 350 336 34 22 30 343 22 71 76 80 95 102 94 106 114 114 113
209 258 257 241 219 238 330 27 66 351 334 353 3 22 20 27 36 12 38 31 24 13 0 8 19 17 5 355 354 20 37 355 29 55 69 72 82 91 99 107 107 111 115 111
287 170 213 236 171 152 68 111 124 121 26 13 13 12 12 8 4 0 347 4 21 22 6 2 13 3 2 348 6 35 6 15 49 70 73 81 87 90 99 113 116 114 116 117
304 185 185 57 260 202 181 172 146 171 118 202 271 278 291 318 329 327 311 323 22 33 5 7 7 10 358 351 19 39 32 37 63 80 80 84 95 95 91 96 107 118 122 120
191 123 189 254 265 271 122 89 191 175 111 43 352 342 335 344 324 318 315 338 13 40 22 27 34 7 339 351 14 25 50 51 75 84 89 90 87 92 89 75 88 99 85 125
191 197 195 252 346 234 54 63 17 65 36 22 356 335 335 351 335 335 311 29 114 175 153 42 36 90 350 360 12 24 44 73 92 100 97 103 106 104 103 107 106 101 112 117